STARLINK-4103 (53141 NORAD) Tracking and Keplerian Element Data

This shows tracking and keplerian element data for the satellite.

Feedback or suggestion? Click here.




ElementValue
Catalog53141
NameSTARLINK-4103
Epoch Orbit130
Epoch Day269.91667824
Epoch Year2022
RAAN69.4455
Inclination53.2161
Eccentricity0.0001907
Argument of Perigee40.3969
Mean Anonmoly96.3959
Mean Motion15.0880027
Decay Rate0.00047848
L11 53141U 22083K 22269.91667824 .00047848 00000+0 30074-2 0 9999
L22 53141 53.2161 69.4455 0001907 40.3969 96.3959 15.08800270 1301

Live tracking and technical data element details for STARLINK-4103 (NORAD 53141). STARLINK-4103 can be tracked NOW for your location showing map with azimuth and elevation plus other details from your city location.

Track the satellite on the map from your city or location and see movement details for azimuth, elevation, latitude, longitude, range, height, and movement on the map or in text.







IsCatalogInMostPopularTable: catalog: 53141, numindb: 7
Update: records affected: 1



GetName: 53141 STARLINK-4103

Hit Count: updated at: Thu, 29 Sep 2022 11:43:26 GMT